Tracking 17630 objects as of 25-May-2016
HD Live streaming from Space Station
objects crossing your sky now

ATLAS 55E R/B

Track ATLAS 55E R/B now!
10-day predictions


NORAD ID: 16137
Int'l Code: 1985-093B
Perigee: 910.7 km
Apogee: 20,386.6 km
Inclination: 63.6 °
Period: 368.3 minutes
Semi major axis: 17019 km
RCS: 2.2883 m2 (large)
Launch date: October 9, 1985
Source: United States (US)
Launch site: AIR FORCE WESTERN TEST RANGE (AFWTR)

Note: This is a ROCKET BODY
Your satellite tracking list
Your tracking list is empty





NASA's NSSDC Master Catalog

Two Line Element Set (TLE):
1 16137U 85093B   16145.49237050 -.00000010  00000-0  00000+0 0  9991
2 16137  63.6342 110.8215 5721589   0.5188  39.1616  3.91035686437394
Source of the keplerian elements: AFSPC

N2YO: 468